Regional Weather Roundup
Issued by NWS

Home | Current Version | Previous Version | Text Only | Print | Product List | Glossary Off
Versions: 1 2 3 4 5 6 7 8 9 10 11 12 13 14 15 16 17 18 19 20 21 22 23 24 25 26 27 28 29 30 31 32 33 34 35 36 37 38 39 40 41 42 43 44 45 46 47 48 49 50

000
ASUS43 KBIS 251610
RWRND

NORTH DAKOTA REGIONAL WEATHER ROUNDUP
NATIONAL WEATHER SERVICE BISMARCK ND
1000 AM CST THU DEC 25 2014

NOTE: "FAIR" INDICATES FEW OR NO CLOUDS BELOW 12,000 FEET WITH NO
SIGNIFICANT WEATHER AND/OR OBSTRUCTIONS TO VISIBILITY.


NDZ001>003-009>011-017-251700-
NORTHWEST NORTH DAKOTA

CITY           SKY/WX    TMP DP  RH WIND       PRES   REMARKS
WILLISTON      CLOUDY    26  20  77 NW9       29.81R WCI  17
MINOT          CLOUDY    26  20  77 NW9       29.74R WCI  17
MINOT AFB      CLOUDY    26  25  99 NW10      29.74R WCI  16
$$

NDZ018>021-031>035-040>046-251700-
SOUTHWEST NORTH DAKOTA

CITY           SKY/WX    TMP DP  RH WIND       PRES   REMARKS
BISMARCK       CLOUDY    27  24  89 NW3       29.76R
DICKINSON      CLOUDY    26  23  88 NW12      29.73R WCI  16
GARRISON         N/A     27  23  85 N15       29.74R WCI  15
HETTINGER ARPT CLOUDY    25  21  85 NW16      29.74R WCI  12
$$

NDZ004>008-012>016-024-026-027-054-251700-
NORTHEAST NORTH DAKOTA

CITY           SKY/WX    TMP DP  RH WIND       PRES   REMARKS
GRAND FORKS    CLOUDY    27  23  85 NW10      29.69R WCI  17
GRND FRKS AFB  CLOUDY    27  27  99 NW12      29.70R WCI  17
DEVILS LAKE    CLOUDY    25  19  80 NW10      29.69R WCI  15
$$

NDZ022-023-025-028>030-036>039-047>053-251700-
SOUTHEAST NORTH DAKOTA

CITY           SKY/WX    TMP DP  RH WIND       PRES   REMARKS
FARGO          CLOUDY    29  25  85 NW8       29.72R
JAMESTOWN      MOSUNNY   22  19  89 N10       29.72R WCI  11
$$



USA.gov is the U.S. government's official web portal to all federal, state and local government web resources and services.